Location: ????????
(48.4751°N, 37.6926°E)
Time: 19:59:43
(UTC+00:00)

Cosmos 2098 Rocket - Pass Details

Date: 20 January 2021
Orbit: 366 x 1182 km, 82.9° (Epoch: 02 March)

Event Time Altitude Azimuth Distance (km) Brightness Sun altitude
Rises 16:42:04 0° 178° (S) 3,824 7.1 -24.9°
Reaches altitude 10° 16:44:33 10° 176° (S) 2,949 6.5 -25.3°
Maximum altitude 16:51:35 72° 94° (E) 1,232 4.2 -26.5°
Drops below altitude 10° 16:59:01 10° 13° (NNE) 3,104 6.5 -27.7°
Sets 17:01:41 0° 11° (N) 4,036 7.1 -28.2°
